Location: Ajisawe
(8.4333°N, 4.3833°E)
Time: 22:17:07
(UTC+00:00)

Vanguard 2 Rocket - Pass Details

Date: 26 April 2021
Orbit: 554 x 3326 km, 32.9° (Epoch: 16 May)

Event Time Altitude Azimuth Distance (km) Brightness Sun altitude
Rises 06:17:57 0° 196° (SSW) 3,379 9.6 11.1°
Reaches altitude 10° 06:20:54 10° 177° (S) 2,753 9.3 11.8°
Maximum altitude 06:25:34 19° 133° (SE) 2,646 9.9 12.9°
Drops below altitude 10° 06:32:02 10° 92° (E) 4,021 12.2 14.5°
Sets 06:37:39 0° 77° (ENE) 5,617 12.8 15.8°
